User: anonymous   Login
Location: Rounton
(54.4000°N, 1.3500°W)
Time: 05:38:58
(UTC+00:00)
Language:

Envisat - Orbit

View from above orbital plane
View from above orbital plane
View from above satellite
View from above satellite

Ground track
Ground track

The orbit data is extracted from the following two-line orbital elements,

1 27386U 02009A   24062.88236806  .00000216  00000-0  84384-4 0  9992
2 27386  98.2694  27.7451 0001368  90.1570 324.5896 14.38511839153292
Epoch (UTC): 02 March 2024 21:10:36
Eccentricity: 0.0001368
inclination: 98.2694°
perigee height: 762 km
apogee height: 764 km
right ascension of ascending node: 27.7451°
argument of perigee: 90.1570°
revolutions per day: 14.38511839
mean anomaly at epoch: 324.5896°
orbit number at epoch: 15329

The dashed part of the orbit path shows where the satellite is in the earth's shadow,  

DLR